| time (UTC) | temp F | wind direction | speed MPH | gust MPH | rain 1hr in | rain 24hr in | rain mn in | humidity % | barometer mb |
| 20260506071056 | 50 | 57 | 4.0 | 6.0 | 0.00 | 0.00 | 0.00 | 72 | 1013.4 |
| 20260506062035 | 46 | 56 | 3.0 | 7.0 | 0.00 | 0.00 | 0.00 | 79 | 1012.9 |
| 20260506061015 | 46 | 58 | 3.0 | 7.0 | 0.00 | 0.00 | 0.00 | 79 | 1012.8 |
| 20260506051015 | 45 | 46 | 4.0 | 7.0 | 0.00 | 0.00 | 0.00 | 81 | 1012.4 |
| 20260506045016 | 45 | 43 | 3.0 | 6.0 | 0.00 | 0.00 | 0.00 | 80 | 1012.2 |
| 20260506044016 | 45 | 46 | 4.0 | 6.0 | 0.00 | 0.00 | 0.00 | 80 | 1012.1 |
| 20260506043035 | 46 | 51 | 3.0 | 7.0 | 0.00 | 0.00 | 0.00 | 80 | 1012.2 |
| 20260506042016 | 46 | 49 | 4.0 | 7.0 | 0.00 | 0.00 | 0.00 | 79 | 1012.3 |
| 20260506041015 | 46 | 51 | 5.0 | 9.0 | 0.00 | 0.00 | 0.00 | 78 | 1012.3 |
| 20260506040015 | 46 | 69 | 3.0 | 7.0 | 0.00 | 0.00 | 0.00 | 78 | 1012.4 |
| 20260506035016 | 46 | 47 | 4.0 | 7.0 | 0.00 | 0.00 | 0.00 | 77 | 1012.4 |
| 20260506034016 | 46 | 53 | 4.0 | 7.0 | 0.00 | 0.00 | 0.00 | 76 | 1012.5 |
| 20260506033015 | 47 | 64 | 3.0 | 6.0 | 0.00 | 0.00 | 0.00 | 76 | 1012.6 |
| 20260506032015 | 47 | 50 | 2.0 | 7.0 | 0.00 | 0.00 | 0.00 | 75 | 1012.6 |
| 20260506031016 | 47 | 44 | 4.0 | 9.0 | 0.00 | 0.00 | 0.00 | 75 | 1012.6 |
| 20260506030016 | 47 | 53 | 3.0 | 7.0 | 0.00 | 0.00 | 0.00 | 73 | 1012.5 |
| 20260506025016 | 48 | 55 | 2.0 | 5.0 | 0.00 | 0.00 | 0.00 | 72 | 1012.6 |
| 20260506024016 | 48 | 65 | 2.0 | 5.0 | 0.00 | 0.00 | 0.00 | 72 | 1012.5 |
| 20260506023016 | 49 | 43 | 4.0 | 6.0 | 0.00 | 0.00 | 0.00 | 71 | 1012.5 |
| 20260506022016 | 49 | 55 | 2.0 | 7.0 | 0.00 | 0.00 | 0.00 | 69 | 1012.7 |
| 20260506021016 | 49 | 73 | 3.0 | 6.0 | 0.00 | 0.00 | 0.00 | 69 | 1012.7 |
| 20260506020015 | 49 | 75 | 3.0 | 6.0 | 0.00 | 0.00 | 0.00 | 69 | 1012.7 |
| 20260506015035 | 50 | 47 | 3.0 | 5.0 | 0.00 | 0.00 | 0.00 | 68 | 1012.9 |
| 20260506014016 | 50 | 46 | 2.0 | 3.0 | 0.00 | 0.00 | 0.00 | 67 | 1012.8 |
| 20260506013016 | 50 | 39 | 2.0 | 3.0 | 0.00 | 0.00 | 0.00 | 66 | 1012.8 |
| 20260506012016 | 50 | 0.0 | 0.0 | 0.00 | 0.00 | 0.00 | 66 | 1012.8 | |
| 20260506011015 | 50 | 0.0 | 1.0 | 0.00 | 0.00 | 0.00 | 64 | 1012.9 | |
| 20260506010015 | 51 | 38 | 1.0 | 4.0 | 0.00 | 0.00 | 0.00 | 63 | 1013.0 |
| 20260506005016 | 51 | 59 | 2.0 | 4.0 | 0.00 | 0.00 | 0.00 | 63 | 1013.0 |
| 20260506004035 | 51 | 79 | 2.0 | 5.0 | 0.00 | 0.00 | 0.00 | 63 | 1012.9 |
| 20260506003015 | 52 | 51 | 3.0 | 7.0 | 0.00 | 0.00 | 0.00 | 62 | 1012.9 |
| 20260506002016 | 52 | 73 | 3.0 | 6.0 | 0.00 | 0.00 | 0.00 | 62 | 1013.2 |
| 20260506001016 | 52 | 44 | 3.0 | 5.0 | 0.00 | 0.00 | 0.00 | 62 | 1013.1 |
| 20260506000015 | 52 | 39 | 3.0 | 5.0 | 0.00 | 0.00 | 0.00 | 61 | 1013.1 |
| 20260505235015 | 52 | 44 | 4.0 | 6.0 | 0.00 | 0.00 | 0.00 | 61 | 1013.1 |
| 20260505234015 | 52 | 49 | 3.0 | 7.0 | 0.00 | 0.00 | 0.00 | 61 | 1013.0 |
| 20260505233035 | 52 | 39 | 3.0 | 6.0 | 0.00 | 0.00 | 0.00 | 61 | 1013.0 |
| 20260505232015 | 53 | 35 | 3.0 | 6.0 | 0.00 | 0.00 | 0.00 | 60 | 1013.0 |
| 20260505231015 | 53 | 47 | 4.0 | 6.0 | 0.00 | 0.00 | 0.00 | 58 | 1012.9 |
| 20260505230015 | 53 | 46 | 4.0 | 9.0 | 0.00 | 0.00 | 0.00 | 56 | 1012.9 |
| 20260505225015 | 54 | 47 | 5.0 | 7.0 | 0.00 | 0.00 | 0.00 | 54 | 1013.0 |
| 20260505224015 | 55 | 72 | 2.0 | 6.0 | 0.00 | 0.00 | 0.00 | 53 | 1013.0 |
| 20260505223015 | 55 | 27 | 2.0 | 3.0 | 0.00 | 0.00 | 0.00 | 51 | 1012.7 |
| 20260505222035 | 56 | 27 | 1.0 | 2.0 | 0.00 | 0.00 | 0.00 | 49 | 1012.9 |
| 20260505221035 | 56 | 27 | 1.0 | 2.0 | 0.00 | 0.00 | 0.00 | 48 | 1012.8 |
| 20260505220015 | 56 | 351 | 1.0 | 3.0 | 0.00 | 0.00 | 0.00 | 47 | 1012.7 |
| 20260505215035 | 57 | 329 | 1.0 | 3.0 | 0.00 | 0.00 | 0.00 | 46 | 1012.8 |
| 20260505214015 | 57 | 19 | 0.0 | 2.0 | 0.00 | 0.00 | 0.00 | 45 | 1012.9 |
| 20260505213015 | 57 | 332 | 1.0 | 3.0 | 0.00 | 0.00 | 0.00 | 44 | 1013.0 |
| 20260505212015 | 58 | 308 | 2.0 | 6.0 | 0.00 | 0.00 | 0.00 | 44 | 1013.1 |
| 20260505211015 | 58 | 315 | 1.0 | 4.0 | 0.00 | 0.00 | 0.00 | 43 | 1013.0 |
| 20260505210015 | 58 | 325 | 2.0 | 3.0 | 0.00 | 0.00 | 0.00 | 43 | 1013.0 |
| 20260505205015 | 59 | 337 | 1.0 | 3.0 | 0.00 | 0.00 | 0.00 | 42 | 1013.0 |
| 20260505204015 | 59 | 343 | 1.0 | 6.0 | 0.00 | 0.00 | 0.00 | 40 | 1012.8 |
| 20260505203015 | 60 | 332 | 2.0 | 5.0 | 0.00 | 0.00 | 0.00 | 39 | 1012.7 |
| 20260505202015 | 60 | 1 | 2.0 | 6.0 | 0.00 | 0.00 | 0.00 | 39 | 1012.6 |
| 20260505201035 | 60 | 357 | 2.0 | 5.0 | 0.00 | 0.00 | 0.00 | 39 | 1012.4 |
| 20260505200015 | 60 | 351 | 3.0 | 9.0 | 0.00 | 0.00 | 0.00 | 39 | 1012.3 |
| 20260505195035 | 60 | 353 | 3.0 | 7.0 | 0.00 | 0.00 | 0.00 | 37 | 1012.2 |
| 20260505194015 | 61 | 350 | 3.0 | 8.0 | 0.00 | 0.00 | 0.00 | 37 | 1012.0 |
| 20260505193015 | 61 | 337 | 3.0 | 6.0 | 0.00 | 0.00 | 0.00 | 37 | 1011.9 |
| 20260505192016 | 61 | 5 | 4.0 | 9.0 | 0.00 | 0.00 | 0.00 | 37 | 1011.7 |
| 20260505191015 | 62 | 341 | 3.0 | 8.0 | 0.00 | 0.00 | 0.00 | 37 | 1011.7 |
| 20260505190015 | 63 | 337 | 4.0 | 8.0 | 0.00 | 0.00 | 0.00 | 36 | 1011.6 |
| 20260505185015 | 63 | 321 | 4.0 | 9.0 | 0.00 | 0.00 | 0.00 | 35 | 1011.6 |
| 20260505184055 | 64 | 321 | 3.0 | 11.0 | 0.00 | 0.00 | 0.00 | 34 | 1011.4 |
| 20260505183036 | 64 | 334 | 4.0 | 8.0 | 0.00 | 0.00 | 0.00 | 34 | 1011.2 |
| 20260505182015 | 65 | 318 | 4.0 | 9.0 | 0.00 | 0.00 | 0.00 | 34 | 1011.2 |
| 20260505181015 | 65 | 349 | 5.0 | 12.0 | 0.00 | 0.00 | 0.00 | 34 | 1011.2 |
| 20260505180016 | 65 | 329 | 3.0 | 9.0 | 0.00 | 0.00 | 0.00 | 35 | 1011.1 |
| 20260505175015 | 64 | 287 | 3.0 | 10.0 | 0.00 | 0.00 | 0.00 | 35 | 1011.0 |
| 20260505174015 | 63 | 313 | 4.0 | 9.0 | 0.00 | 0.00 | 0.00 | 36 | 1011.0 |
| 20260505173016 | 63 | 322 | 4.0 | 11.0 | 0.00 | 0.00 | 0.00 | 36 | 1011.0 |
| 20260505172016 | 64 | 332 | 4.0 | 9.0 | 0.00 | 0.00 | 0.00 | 36 | 1011.0 |
| 20260505171015 | 64 | 303 | 5.0 | 11.0 | 0.00 | 0.00 | 0.00 | 35 | 1011.2 |
| 20260505170015 | 65 | 295 | 5.0 | 13.0 | 0.00 | 0.00 | 0.00 | 34 | 1011.2 |
| 20260505165015 | 65 | 312 | 5.0 | 11.0 | 0.00 | 0.00 | 0.00 | 34 | 1011.2 |
| 20260505164016 | 65 | 329 | 4.0 | 10.0 | 0.00 | 0.00 | 0.00 | 33 | 1011.1 |
| 20260505163015 | 65 | 310 | 4.0 | 9.0 | 0.00 | 0.00 | 0.00 | 32 | 1011.0 |
| 20260505162016 | 66 | 307 | 8.0 | 14.0 | 0.00 | 0.00 | 0.00 | 31 | 1011.1 |
| 20260505161055 | 66 | 349 | 5.0 | 13.0 | 0.00 | 0.00 | 0.00 | 32 | 1011.1 |
| 20260505153016 | 67 | 277 | 5.0 | 13.0 | 0.00 | 0.00 | 0.00 | 31 | 1011.3 |
| 20260505152016 | 67 | 311 | 3.0 | 10.0 | 0.00 | 0.00 | 0.00 | 29 | 1011.3 |
| 20260505151016 | 66 | 272 | 5.0 | 13.0 | 0.00 | 0.00 | 0.00 | 31 | 1011.4 |
| 20260505125015 | 64 | 252 | 5.0 | 10.0 | 0.00 | 0.00 | 0.00 | 36 | 1012.3 |
| 20260505124016 | 64 | 263 | 6.0 | 12.0 | 0.00 | 0.00 | 0.00 | 38 | 1012.3 |
| 20260505123036 | 63 | 292 | 4.0 | 12.0 | 0.00 | 0.00 | 0.00 | 40 | 1012.3 |
| 20260505122016 | 63 | 276 | 5.0 | 12.0 | 0.00 | 0.00 | 0.00 | 41 | 1012.4 |
| 20260505121016 | 62 | 268 | 6.0 | 13.0 | 0.00 | 0.00 | 0.00 | 41 | 1012.5 |
| 20260505120016 | 63 | 307 | 5.0 | 13.0 | 0.00 | 0.00 | 0.00 | 42 | 1012.6 |
| 20260505115015 | 64 | 275 | 7.0 | 12.0 | 0.00 | 0.00 | 0.00 | 42 | 1012.6 |
| 20260505114036 | 62 | 271 | 5.0 | 12.0 | 0.00 | 0.00 | 0.00 | 45 | 1012.7 |
| 20260505112015 | 62 | 228 | 3.0 | 8.0 | 0.00 | 0.00 | 0.00 | 44 | 1012.8 |
| 20260505111016 | 61 | 275 | 4.0 | 10.0 | 0.00 | 0.00 | 0.00 | 46 | 1012.9 |
| 20260505102016 | 62 | 265 | 5.0 | 10.0 | 0.00 | 0.00 | 0.00 | 43 | 1013.1 |
| 20260505101016 | 62 | 270 | 5.0 | 10.0 | 0.00 | 0.00 | 0.00 | 43 | 1013.3 |
| 20260505100015 | 61 | 314 | 3.0 | 8.0 | 0.00 | 0.00 | 0.00 | 45 | 1013.2 |
| 20260505095036 | 60 | 303 | 3.0 | 7.0 | 0.00 | 0.00 | 0.00 | 46 | 1013.1 |
| 20260505094016 | 60 | 289 | 3.0 | 8.0 | 0.00 | 0.00 | 0.00 | 46 | 1013.2 |
| 20260505093016 | 60 | 276 | 4.0 | 8.0 | 0.00 | 0.00 | 0.00 | 47 | 1013.2 |
| 20260505092016 | 60 | 254 | 2.0 | 5.0 | 0.00 | 0.00 | 0.00 | 50 | 1013.2 |
| 20260505091016 | 60 | 255 | 1.0 | 6.0 | 0.00 | 0.00 | 0.00 | 50 | 1013.2 |
| 20260505090036 | 60 | 137 | 3.0 | 8.0 | 0.00 | 0.00 | 0.00 | 52 | 1013.2 |
| 20260505085016 | 59 | 187 | 3.0 | 6.0 | 0.00 | 0.00 | 0.00 | 57 | 1013.3 |
| 20260505084036 | 59 | 203 | 2.0 | 5.0 | 0.00 | 0.00 | 0.00 | 56 | 1013.3 |
| 20260505083016 | 58 | 276 | 2.0 | 3.0 | 0.00 | 0.00 | 0.00 | 59 | 1013.3 |
| 20260505082016 | 57 | 249 | 1.0 | 6.0 | 0.00 | 0.00 | 0.00 | 62 | 1013.3 |
| 20260505081015 | 57 | 229 | 3.0 | 6.0 | 0.00 | 0.00 | 0.00 | 63 | 1013.3 |
| 20260505080036 | 56 | 270 | 2.0 | 6.0 | 0.00 | 0.00 | 0.00 | 63 | 1013.3 |
| 20260505075016 | 56 | 249 | 2.0 | 4.0 | 0.00 | 0.00 | 0.00 | 65 | 1013.3 |
| 20260505074016 | 55 | 110 | 3.0 | 5.0 | 0.00 | 0.00 | 0.00 | 68 | 1013.3 |
| 20260505073036 | 54 | 269 | 1.0 | 4.0 | 0.00 | 0.00 | 0.00 | 69 | 1013.4 |
| 20260505072036 | 54 | 250 | 2.0 | 4.0 | 0.00 | 0.00 | 0.00 | 67 | 1013.3 |